Weather History for Frankfort, MI

Change the Weather History Date:

Monday, February 11, 2013

  Actual Average (KTVC) Record (KTVC)
Temperature  
Mean Temperature 37 °F 22 °F  
Max Temperature 44 °F 29 °F 60 °F (1999)
Min Temperature 30 °F 15 °F -32 °F (1899)
Degree Days  
Heating Degree Days 28 43  
Month to date heating degree days 480  
Since 1 July heating degree days 4636  
Moisture  
Dew Point 31 °F    
Average Humidity 84    
Maximum Humidity 95    
Minimum Humidity 66    
Precipitation  
Precipitation 0.00 in 0.05 in 0.70 in (1932)
Month to date precipitation 0.62  
Year to date precipitation 3.44  
Sea Level Pressure  
Sea Level Pressure 29.51 in    
Wind  
Wind Speed 15 mph (WSW)    
Max Wind Speed 22 mph    
Max Gust Speed 31 mph    
Visibility 8 miles    
Events Rain , Snow    
T = Trace of Precipitation, MM = Missing Value Source: NWS Daily Summary

Daily Weather History Graph

Daily Weather History Graph

Search for Another Location

Airport:

Trip Planner

Search our weather history database for the weather conditions in past years. The results will help you decide how hot, cold, wet, or windy it might be!

Date:

Astronomy

Feb. 11, 2013 Rise Set
Actual Time 7:50 AM EST 6:08 PM EST
Civil Twilight 7:20 AM EST 6:38 PM EST
Nautical Twilight 6:45 AM EST 7:12 PM EST
Astronomical Twilight 6:12 AM EST 7:46 PM EST
Moon 8:08 AM EST (2/11) 8:11 PM EST (2/11)
Length of Visible Light 11h 18m
Length of Day
10h 17m
Waxing Crescent, 3% of the Moon is Illuminated
Feb 11
Waxing Crescent
Feb 17
First Quarter
Feb 25
Full
Mar 4
Last Quarter
Mar 11
New

Hourly Weather History & Observations

Time (EST) Temp. Windchill Dew Point Humidity Pressure Visibility Wind Dir Wind Speed Gust Speed Precip Events Conditions
12:15 AM 40.1 °F 32.7 °F 37.6 °F 91% 29.43 in 10.0 mi SSE 12.7 mph 25.3 mph N/A   Overcast
12:35 AM 40.6 °F 33.0 °F 38.3 °F 91% 29.42 in 10.0 mi SSE 13.8 mph 18.4 mph N/A   Overcast
12:56 AM 41.5 °F 33.5 °F 39.2 °F 91% 29.41 in 10.0 mi South 16.1 mph 19.6 mph N/A   Overcast
1:16 AM 42.1 °F 34.2 °F 39.4 °F 90% 29.41 in 10.0 mi South 16.1 mph 20.7 mph N/A   Mostly Cloudy
1:31 AM 43.2 °F 35.6 °F 39.9 °F 88% 29.40 in 10.0 mi South 16.1 mph 21.9 mph N/A   Overcast
1:51 AM 43.9 °F 37.2 °F 40.1 °F 87% 29.39 in 10.0 mi South 13.8 mph 25.3 mph N/A   Overcast
2:11 AM 43.9 °F 36.5 °F 39.7 °F 85% 29.39 in 10.0 mi South 16.1 mph 25.3 mph N/A   Mostly Cloudy
2:32 AM 44.1 °F 36.5 °F 38.3 °F 80% 29.38 in 10.0 mi South 17.3 mph 28.8 mph N/A   Overcast
3:12 AM 43.0 °F 35.1 °F 36.0 °F 76% 29.38 in 10.0 mi South 17.3 mph 25.3 mph N/A   Overcast
3:32 AM 42.8 °F 34.3 °F 35.1 °F 74% 29.37 in 10.0 mi South 19.6 mph 29.9 mph N/A   Overcast
3:52 AM 41.9 °F 33.7 °F 34.0 °F 73% 29.36 in 10.0 mi South 17.3 mph 27.6 mph N/A   Overcast
4:32 AM 39.6 °F 32.1 °F 33.4 °F 79% 29.36 in 10.0 mi South 12.7 mph 24.2 mph N/A   Overcast
4:52 AM 38.7 °F 30.1 °F 34.0 °F 83% 29.36 in 10.0 mi SSW 15.0 mph 23.0 mph N/A Rain Light Rain
5:33 AM 37.0 °F 28.9 °F 32.9 °F 85% 29.37 in 10.0 mi SW 12.7 mph 23.0 mph N/A Rain Rain
5:53 AM 36.7 °F 28.4 °F 33.3 °F 87% 29.37 in 5.0 mi SW 12.7 mph 20.7 mph N/A Rain Light Rain
6:13 AM 36.5 °F 27.4 °F 32.9 °F 87% 29.36 in 10.0 mi SSW 15.0 mph 21.9 mph N/A   Light Drizzle
6:33 AM 36.5 °F 27.8 °F 32.9 °F 87% 29.36 in 10.0 mi SW 13.8 mph 27.6 mph N/A Rain Light Rain
7:33 AM 35.4 °F 24.6 °F 32.0 °F 87% 29.37 in 7.0 mi SSW 19.6 mph 31.1 mph N/A Rain Light Rain
8:14 AM 33.3 °F 22.8 °F 32.0 °F 95% 29.38 in 4.0 mi SSW 16.1 mph 25.3 mph N/A Snow Light Snow
8:34 AM 33.8 °F 23.9 °F 31.6 °F 92% 29.37 in 3.0 mi SW 15.0 mph 27.6 mph N/A Snow Light Snow
8:54 AM 34.3 °F 25.9 °F 30.6 °F 86% 29.38 in 10.0 mi SW 11.5 mph 31.1 mph N/A   Overcast
9:14 AM 34.7 °F 25.9 °F 30.9 °F 86% 29.38 in 7.0 mi SW 12.7 mph 24.2 mph N/A   Light Drizzle
9:54 AM 33.3 °F 23.7 °F 31.6 °F 94% 29.38 in 1.2 mi SW 13.8 mph 26.5 mph N/A Rain Light Rain
10:14 AM 33.1 °F 23.4 °F 31.8 °F 95% 29.39 in 2.0 mi SSW 13.8 mph 24.2 mph N/A Rain Light Rain
10:34 AM 33.1 °F 23.9 °F 31.6 °F 94% 29.39 in 2.0 mi SW 12.7 mph 25.3 mph N/A Snow Light Snow
10:54 AM 33.1 °F 23.9 °F 31.6 °F 94% 29.39 in 2.0 mi SSW 12.7 mph 21.9 mph N/A Snow Light Snow
11:55 AM 34.2 °F 26.8 °F 32.0 °F 92% 29.40 in 5.0 mi SW 9.2 mph 21.9 mph N/A Snow Light Snow
12:15 PM 34.5 °F 26.7 °F 32.0 °F 90% 29.40 in 4.0 mi SW 10.4 mph 20.7 mph N/A Snow Light Snow
1:15 PM 35.6 °F 26.6 °F 32.9 °F 90% 29.40 in 5.0 mi WSW 13.8 mph 23.0 mph N/A Rain Light Rain
1:35 PM 36.0 °F 27.5 °F 33.1 °F 89% 29.41 in 10.0 mi West 12.7 mph 21.9 mph N/A   Light Drizzle
1:55 PM 36.5 °F 26.3 °F 32.9 °F 87% 29.42 in 10.0 mi West 18.4 mph 25.3 mph N/A   Overcast
2:16 PM 36.7 °F 27.6 °F 32.5 °F 85% 29.44 in 10.0 mi West 15.0 mph 23.0 mph N/A   Overcast
2:36 PM 36.5 °F 26.7 °F 32.9 °F 87% 29.45 in 4.0 mi West 17.3 mph 24.2 mph N/A Rain Rain
2:56 PM 36.3 °F 28.0 °F 32.7 °F 87% 29.47 in 10.0 mi West 12.7 mph 23.0 mph N/A   Light Drizzle
3:16 PM 36.0 °F 26.7 °F 32.7 °F 88% 29.49 in 10.0 mi West 15.0 mph 23.0 mph N/A Rain Light Rain
3:36 PM 35.1 °F 26.4 °F 32.2 °F 89% 29.51 in 5.0 mi West 12.7 mph 27.6 mph N/A Snow Light Snow
3:51 PM 35.2 °F 25.4 °F 32.2 °F 89% 29.52 in 7.0 mi West 16.1 mph 21.9 mph N/A Rain Rain
4:11 PM 35.2 °F 24.7 °F 32.2 °F 89% 29.54 in 10.0 mi West 18.4 mph 24.2 mph N/A   Light Drizzle
4:31 PM 35.1 °F 24.1 °F 31.1 °F 85% 29.56 in 10.0 mi WNW 19.6 mph 24.2 mph N/A   Overcast
4:51 PM 35.1 °F 24.1 °F 30.9 °F 85% 29.57 in 10.0 mi WNW 19.6 mph 27.6 mph N/A   Overcast
5:52 PM 34.3 °F 24.2 °F 29.5 °F 82% 29.63 in 5.0 mi WNW 16.1 mph 23.0 mph N/A Snow Light Snow
6:12 PM 33.8 °F 23.2 °F 30.0 °F 86% 29.65 in 5.0 mi WNW 17.3 mph 26.5 mph N/A Snow Light Snow
6:32 PM 33.8 °F 23.2 °F 29.5 °F 84% 29.66 in 5.0 mi WNW 17.3 mph 26.5 mph N/A Snow Light Snow
6:52 PM 33.8 °F 21.9 °F 29.3 °F 84% 29.67 in 5.0 mi WNW 21.9 mph 28.8 mph N/A Snow Light Snow
7:12 PM 33.3 °F 22.8 °F 29.7 °F 87% 29.68 in 7.0 mi WNW 16.1 mph 20.7 mph N/A Snow Light Snow
7:32 PM 33.6 °F 24.6 °F 28.6 °F 82% 29.70 in 10.0 mi WNW 12.7 mph 23.0 mph N/A Snow Light Snow
7:53 PM 32.9 °F 22.8 °F 28.8 °F 85% 29.71 in 3.0 mi NW 15.0 mph 23.0 mph N/A Snow Light Snow
8:13 PM 32.9 °F 21.0 °F 27.5 °F 81% 29.72 in 7.0 mi NW 20.7 mph 26.5 mph N/A Snow Light Snow
8:33 PM 32.5 °F 21.9 °F 26.1 °F 77% 29.73 in 10.0 mi WNW 16.1 mph 26.5 mph N/A Snow Light Snow
8:53 PM 32.0 °F 20.5 °F 25.3 °F 76% 29.75 in 10.0 mi NW 18.4 mph 29.9 mph N/A Snow Light Snow
9:13 PM 32.0 °F 22.1 °F 25.2 °F 76% 29.76 in 10.0 mi WNW 13.8 mph 24.2 mph N/A Snow Light Snow
9:33 PM 31.8 °F 21.4 °F 24.3 °F 74% 29.77 in 10.0 mi NW 15.0 mph 26.5 mph N/A   Overcast
9:53 PM 31.5 °F 21.4 °F 23.9 °F 74% 29.78 in 10.0 mi WNW 13.8 mph 27.6 mph N/A   Overcast
10:13 PM 31.1 °F 20.1 °F 24.1 °F 75% 29.79 in 5.0 mi WNW 16.1 mph 23.0 mph N/A Snow Light Snow
10:33 PM 30.9 °F 20.2 °F 24.6 °F 77% 29.79 in 5.0 mi NW 15.0 mph - N/A Snow Light Snow
10:54 PM 31.1 °F 18.9 °F 23.0 °F 72% 29.80 in 10.0 mi NW 19.6 mph 27.6 mph N/A   Overcast
11:14 PM 30.7 °F 18.1 °F 21.0 °F 67% 29.80 in 10.0 mi NW 20.7 mph 27.6 mph N/A   Overcast
11:34 PM 30.2 °F 18.5 °F 19.9 °F 66% 29.81 in 10.0 mi NW 17.3 mph 25.3 mph N/A   Overcast